EW1390 Weather Reports


time (UTC)temp
C
wind
direction
speed
KPH
gust
KPH
rain 1hr
cm
rain 24hr
cm
rain mn
cm
humidity
%
barometer
mb
20260510210050 28 222 0.0 8.0 0.00 0.00 0.00 41 1005.6
20260510204553 28 140 0.0 6.4 0.00 0.00 0.00 43 1005.5
20260510203044 28 227 3.2 8.0 0.00 0.00 0.00 40 1005.7
20260510201544 28 246 1.6 9.7 0.00 0.00 0.00 42 1005.8
20260510200041 28 127 1.6 6.4 0.00 0.00 0.00 42 1005.9
20260510194537 27 122 3.2 9.7 0.00 0.00 0.00 44 1005.9
20260510193034 27 344 0.0 6.4 0.00 0.00 0.00 47 1005.9
20260510191532 27 186 1.6 9.7 0.00 0.00 0.00 49 1006.0
20260510190038 27 223 0.0 11.3 0.00 0.00 0.00 56 1006.0
20260510184527 26 174 0.0 3.2 0.00 0.00 0.00 52 1006.3
20260510183032 26 232 0.0 6.4 0.00 0.00 0.00 54 1006.3
20260510181538 26 261 0.0 6.4 0.00 0.00 0.00 58 1006.3
20260510180027 25 226 1.6 8.0 0.00 0.00 0.00 58 1006.3
20260510174514 25 158 0.0 6.4 0.00 0.00 0.00 61 1006.4
20260510173018 23 164 0.0 4.8 0.00 0.00 0.00 66 1006.2
20260510171505 22 88 0.0 3.2 0.00 0.00 0.00 70 1006.1
20260510170000 21 214 0.0 6.4 0.00 0.00 0.00 74 1006.0
20260510164611 21 243 0.0 4.8 0.00 0.00 0.00 83 1006.0
20260510163053 18 294 0.0 4.8 0.00 0.00 0.00 92 1005.8
20260510161548 17 338 0.0 0.0 0.00 0.00 0.00 95 1005.9
20260510160045 16 338 0.0 0.0 0.00 0.00 0.00 95 1005.8
20260510154542 16 338 0.0 0.0 0.00 0.00 0.00 95 1005.9
20260510153045 15 338 0.0 0.0 0.00 0.00 0.00 95 1005.9
20260510151536 14 338 0.0 0.0 0.00 0.00 0.00 95 1005.8
20260510150035 13 338 0.0 0.0 0.00 0.00 0.00 94 1005.8
20260510144544 13 338 0.0 0.0 0.00 0.00 0.00 94 1005.7
20260510143031 12 338 0.0 0.0 0.00 0.00 0.00 94 1005.6
20260510141530 12 338 0.0 0.0 0.00 0.00 0.00 93 1005.6
20260510140030 12 338 0.0 0.0 0.00 0.00 0.00 93 1005.4
20260510134529 12 338 0.0 0.0 0.00 0.00 0.00 93 1005.2
20260510133028 12 338 0.0 0.0 0.00 0.00 0.00 93 1005.1
20260510131527 12 338 0.0 0.0 0.00 0.00 0.00 93 1005.1
20260510130026 12 338 0.0 0.0 0.00 0.00 0.00 92 1005.1
20260510124523 12 338 0.0 0.0 0.00 0.00 0.00 92 1005.1
20260510123022 12 338 0.0 0.0 0.00 0.00 0.00 92 1005.1
20260510121521 12 338 0.0 0.0 0.00 0.00 0.00 92 1005.2
20260510120020 12 338 0.0 0.0 0.00 0.00 0.00 92 1005.2
20260510114519 12 338 0.0 0.0 0.00 0.00 0.00 92 1005.2
20260510113020 12 338 0.0 0.0 0.00 0.00 0.00 92 1005.2
20260510111516 13 338 0.0 0.0 0.00 0.00 0.00 91 1005.1
20260510110023 13 338 0.0 0.0 0.00 0.00 0.00 91 1005.1
20260510104514 13 338 0.0 0.0 0.00 0.00 0.00 91 1005.2
20260510103011 13 338 0.0 0.0 0.00 0.00 0.00 91 1005.2
20260510101510 13 338 0.0 0.0 0.00 0.00 0.00 91 1005.2
20260510100011 13 338 0.0 0.0 0.00 0.00 0.00 91 1005.4
20260510094507 13 338 0.0 0.0 0.00 0.00 0.00 90 1005.3
20260510093008 13 338 0.0 0.0 0.00 0.00 0.00 90 1005.3
20260510091505 13 338 0.0 0.0 0.00 0.00 0.00 90 1005.3
20260510090003 13 338 0.0 0.0 0.00 0.00 0.00 89 1005.3
20260510084501 13 338 0.0 0.0 0.00 0.00 0.00 89 1005.4
20260510083105 14 338 0.0 0.0 0.00 0.00 0.00 89 1005.5
20260510081557 14 338 0.0 0.0 0.00 0.00 0.00 89 1005.4
20260510080059 14 338 0.0 0.0 0.00 0.00 0.00 88 1005.4
20260510074616 14 338 0.0 0.0 0.00 0.00 0.00 88 1005.4
20260510073052 15 338 0.0 0.0 0.00 0.00 0.00 88 1005.4
20260510071557 15 338 0.0 0.0 0.00 0.00 0.00 87 1005.4
20260510070047 15 338 0.0 0.0 0.00 0.00 0.00 87 1005.4
20260510064605 15 338 0.0 0.0 0.00 0.00 0.00 86 1005.4
20260510063051 15 338 0.0 0.0 0.00 0.00 0.00 86 1005.3
20260510061545 15 338 0.0 0.0 0.00 0.00 0.00 85 1005.3
20260510060053 16 338 0.0 0.0 0.00 0.00 0.00 85 1005.3
20260510054545 16 338 0.0 0.0 0.00 0.00 0.00 84 1005.3
20260510053044 16 338 0.0 0.0 0.00 0.00 0.00 84 1005.2
20260510051553 16 338 0.0 0.0 0.00 0.00 0.00 83 1005.3
20260510050043 17 338 0.0 0.0 0.00 0.00 0.00 82 1005.3
20260510044543 17 338 0.0 0.0 0.00 0.00 0.00 82 1005.1
20260510043048 17 338 0.0 0.0 0.00 0.00 0.00 81 1005.1
20260510041557 18 338 0.0 0.0 0.00 0.00 0.00 79 1005.2
20260510040044 18 338 0.0 3.2 0.00 0.00 0.00 78 1005.1
20260510034540 18 338 0.0 1.6 0.00 0.00 0.00 77 1005.0
20260510033039 19 338 0.0 0.0 0.00 0.00 0.00 74 1004.7
20260510031539 20 338 0.0 0.0 0.00 0.00 0.00 72 1004.7
20260510030046 21 338 0.0 0.0 0.00 0.00 0.00 69 1004.5
20260510024550 22 338 0.0 0.0 0.00 0.00 0.00 66 1004.5
20260510023036 23 338 0.0 0.0 0.00 0.00 0.00 61 1004.5
20260510021536 25 338 0.0 1.6 0.00 0.00 0.00 56 1004.4
20260510020035 25 240 0.0 3.2 0.00 0.00 0.00 52 1004.4
20260510014635 26 240 0.0 6.4 0.00 0.00 0.00 49 1004.3
20260510013034 26 246 0.0 8.0 0.00 0.00 0.00 45 1004.3
20260510011537 27 246 0.0 8.0 0.00 0.00 0.00 42 1004.3
20260510010043 27 244 1.6 8.0 0.00 0.00 0.00 42 1004.3
20260510004531 28 248 0.0 3.2 0.00 0.00 0.00 44 1004.4
20260510003032 28 227 0.0 6.4 0.00 0.00 0.00 42 1004.3
20260510001528 28 248 0.0 8.0 0.00 0.00 0.00 46 1004.3
20260510000027 27 234 0.0 8.0 0.00 0.00 0.00 46 1004.3
20260509234526 28 308 1.6 6.4 0.00 0.00 0.00 47 1004.4
20260509233025 28 226 3.2 11.3 0.00 0.00 0.00 45 1004.5
20260509231530 28 248 1.6 6.4 0.00 0.00 0.00 46 1004.5
20260509230024 28 9 3.2 11.3 0.00 0.00 0.00 48 1004.5
20260509224520 28 219 0.0 11.3 0.00 0.00 0.00 49 1004.6
20260509223021 28 99 0.0 6.4 0.00 0.00 0.00 48 1004.9
20260509221528 28 164 0.0 8.0 0.00 0.00 0.00 49 1005.0
20260509220015 27 17 0.0 8.0 0.00 0.00 0.00 51 1005.1
20260509214612 28 320 3.2 8.0 0.00 0.00 0.00 49 1005.3
20260509213010 28 286 0.0 8.0 0.00 0.00 0.00 47 1005.5
20260509211508 27 257 0.0 14.5 0.00 0.00 0.00 49 1005.6